Regional Weather Roundup
Issued by NWS

Home | Current Version | Previous Version | Text Only | Print | Product List | Glossary On
Versions: 1 2 3 4 5 6 7 8 9 10 11 12 13 14 15 16 17 18 19 20 21 22 23 24 25 26 27 28 29 30 31 32 33 34 35 36 37 38 39 40 41 42 43 44 45 46 47 48 49 50
000
ASUS43 KLSX 021907
RWRMO

WEATHER SUMMARY FOR MISSOURI
NATIONAL WEATHER SERVICE SPRINGFIELD MO
200 PM CDT TUE JUN 02 2015

NOTE: "FAIR" INDICATES FEW OR NO CLOUDS BELOW 12,000 FEET WITH NO
       SIGNIFICANT WEATHER AND/OR OBSTRUCTIONS TO VISIBILITY.
       CURRENT SKY AND/OR WEATHER CONDITIONS ARE NOT AVAILABLE FOR
       CHILLICOTHE AND FARMINGTON.

MOZ001>031-035>038-043-044-053-054-022000-
...NORTHERN AND WESTERN MISSOURI...

CITY           SKY/WX    TMP DP  RH WIND       PRES   REMARKS
KANSAS CTY INT PTSUNNY   72  61  68 SE14      30.02F
KANSAS C DTWN  CLOUDY    73  58  59 SE8       30.01F
LEE`S SUMMIT   CLOUDY    70  58  65 SE7       30.04F
ST JOSEPH      PTSUNNY   72  59  63 SE14G21   30.01F
CHILLICOTHE      N/A     67  56  67 S8        30.08S
KIRKSVILLE     CLOUDY    68  57  68 SE10      30.08F

$$
MOZ066>068-077>081-088>096-101>105-022000-
...SOUTHWEST MISSOURI...

CITY           SKY/WX    TMP DP  RH WIND       PRES   REMARKS
SPRINGFIELD    MOSUNNY   72  60  66 SE8       30.05F
JOPLIN         PTSUNNY   78  64  61 SE5       30.02F

$$
MOZ032>034-039>042-045>050-055>058-069>072-022000-
...CENTRAL MISSOURI...

CITY           SKY/WX    TMP DP  RH WIND       PRES   REMARKS
COLUMBIA       CLOUDY    68  57  68 SE8       30.07F
JEFFERSON CITY CLOUDY    68  55  63 SE13      30.07F
ROLLA          CLOUDY    64  56  75 SE7       30.08F
SEDALIA        MOSUNNY   72  57  59 SE7       30.07F
WHITEMAN AFB   PTSUNNY   70  58  65 VRB5      30.04F
WARRENSBURG    PTSUNNY   72  55  56 SE8       30.05F
OSAGE BEACH    CLOUDY    68  54  60 E8        30.08F

$$
MOZ051-052-059>065-022000-
...EAST CENTRAL MISSOURI...

CITY           SKY/WX    TMP DP  RH WIND       PRES   REMARKS
ST LOUIS INTL  PTSUNNY   72  55  55 E5        30.09F
SPIRIT OF STL  CLOUDY    69  55  60 VRB6      30.08F
ST CHARLES     MOSUNNY   71  56  58 VRB6      30.08F

$$
MOZ072>076-082>087-097>100-106>115-022000-
...SOUTH CENTRAL AND SOUTHEAST MISSOURI...

CITY           SKY/WX    TMP DP  RH WIND       PRES   REMARKS
CAPE GIRARDEAU CLOUDY    65  57  75 NE6       30.09F
FARMINGTON     CLOUDY    63  55  77 E5        30.14F
POPLAR BLUFF   CLOUDY    64  54  69 VRB3      30.08F
WEST PLAINS    PTSUNNY   70  56  61 VRB3      30.09F

$$


USA.gov is the U.S. government's official web portal to all federal, state and local government web resources and services.